Preview of NWS' New Version of Forecast
This preview is not operational and should not be used for support decisions.

Regional Weather Roundup (RWR)

Issued by National Weather Service (NWS)

                            
000
ASUS43 KOAX 201010
RWRNE 

WEATHER ROUNDUP FOR NEBRASKA
NATIONAL WEATHER SERVICE OMAHA NE
400 AM CST WED FEB 20 2019

NOTES: SATELLITE DATA IS BEING USED TO AUGMENT CLOUD COVER ABOVE
       12000 FEET.
       "FAIR" INDICATES FEW OR NO CLOUDS BELOW 12,000 FEET WITH NO
       SIGNIFICANT WEATHER AND/OR OBSTRUCTIONS TO VISIBILITY.

   
NEZ001>004-019>022-054>056-201100-
NEBRASKA PANHANDLE
  
CITY           SKY/WX    TMP DP  RH WIND       PRES   REMARKS
SCOTTSBLUFF    FOG        4   3  96 N3        29.62F VSB 1/4          
ALLIANCE       FAIR      -3  -5  90 W6        29.59F WCI -15          
CHADRON        FAIR       6   3  87 SW7       29.62F WCI  -6          
GORDON         CLOUDY     4   0  83 CALM      29.61F                  
KIMBALL        FAIR       3  -1  82 W8        29.58F WCI -10          
SIDNEY         FAIR       2   0  91 W9        29.60F WCI -13          
$$
 
NEZ057>060-069>072-079>082-201100-
SOUTHWEST NEBRASKA
  
CITY           SKY/WX    TMP DP  RH WIND       PRES   REMARKS
NORTH PLATTE   LGT SNOW  14  11  87 CALM      29.70F FOG              
IMPERIAL       LGT SNOW  14   9  80 CALM      29.67F                  
LEXINGTON      LGT SNOW  16  13  88 CALM      29.71F                  
MCCOOK         CLOUDY    15  12  88 MISG      29.71F FOG              
OGALLALA       LGT SNOW  12  10  91 CALM      29.67F                  
$$
 
NEZ005>010-023>029-035>040-094-201100-
NORTH CENTRAL NEBRASKA
  
CITY           SKY/WX    TMP DP  RH WIND       PRES   REMARKS
VALENTINE      LGT SNOW  14  10  84 SE3       29.69F FOG              
AINSWORTH      LGT SNOW  14  12  93 CALM      29.69F                  
BROKEN BOW     LGT SNOW  14  11  87 CALM      29.69F FOG              
O'NEILL        LGT SNOW  15  13  90 CALM      29.74F                  
ORD            LGT SNOW  15  12  88 NW3       29.72F FOG              
THEDFORD       LGT SNOW  14  12  91 CALM      29.68F                  
$$
 
NEZ041-046>049-061>064-073>077-083>087-201100-
SOUTH CENTRAL NEBRASKA
  
CITY           SKY/WX    TMP DP  RH WIND       PRES   REMARKS
GRAND ISLAND   CLOUDY    17  14  88 N3        29.74F FOG              
AURORA         LGT SNOW  19  18  97 CALM      29.74F                  
HASTINGS       LGT SNOW  19  16  88 CALM      29.74F FOG              
HEBRON         LGT SNOW  24  24  96 CALM      29.76F                  
HOLDREGE       LGT SNOW  16  16  98 CALM      29.72F                  
KEARNEY        LGT SNOW  16  13  88 NW5       29.74F FOG     WCI   9  
YORK           LGT SNOW  19  19 100 E3        29.76F                  
$$
 
NEZ011>018-030>034-042>045-201100-
NORTHEAST NEBRASKA
  
CITY           SKY/WX    TMP DP  RH WIND       PRES   REMARKS
NORFOLK        LGT SNOW  17  15  92 E5        29.76F FOG     WCI  10  
ALBION         LGT SNOW  18  15  89 CALM      29.75F VSB 1            
BLAIR          LGT SNOW  24  22  95 CALM      29.79F                  
COLUMBUS       LGT SNOW  18  16  92 E7        29.78F FOG     WCI   9  
FREMONT        LGT SNOW  24  23  97 CALM      29.80F                  
TEKAMAH        LGT SNOW  21  20  96 N8        29.82F FOG     WCI  11  
WAYNE          LGT SNOW  17  14  85 E6        29.79F WCI   9          
$$

NEZ050>053-065>068-078-088>093-201100-
SOUTHEAST NEBRASKA
  
CITY           SKY/WX    TMP DP  RH WIND       PRES   REMARKS
LINCOLN        LGT SNOW  22  20  92 CALM      29.79F FOG              
OMAHA EPPLEY   FRZ RAIN  25  23  92 N3        29.82F VSB 1            
BEATRICE       LGT SNOW  28  27  98 S5        29.77F WCI  22          
FALLS CITY     LGT SNOW  26  25  96 SE3       29.79F FOG              
NEBRASKA CITY  MIX PCPN  27  25  91 S6        29.80F WCI  20          
PLATTSMOUTH    MIX PCPN  26  25  96 S3        29.80F                  
$$

NEZ044-045-051>053-067-201100-
OMAHA AREA
  
CITY           SKY/WX    TMP DP  RH WIND       PRES   REMARKS
OMAHA EPPLEY   FRZ RAIN  25  23  92 N3        29.82F VSB 1            
BLAIR          LGT SNOW  24  22  95 CALM      29.79F                  
FREMONT        LGT SNOW  24  23  97 CALM      29.80F                  
MILLARD        MIX PCPN  26  24  93 CALM      29.81F                  
OFFUTT AFB     FRZ DRZL  25  25 100 CALM      29.80F FOG              
PLATTSMOUTH    MIX PCPN  26  25  96 S3        29.80F                  
WAHOO          LGT SNOW  22  22 100 CALM      29.79F                  
$$